Location: Columbia
(38.9520°N, 92.3340°W)
Time: 01:55:37
(UTC-05:00)

ISS - Visible Passes

Search period start: 25 April 2018 00:00
Search period end: 05 May 2018 00:00
Orbit: 403 x 406 km, 51.6° (Epoch: 25 April)

Date Brightness Start Highest point End Pass type
(mag) Time Alt. Az. Time Alt. Az. Time Alt. Az.
30 Apr -1.7 05:19:12 10° S 05:21:43 21° SE 05:24:14 10° E visible
01 May -1.0 04:28:56 10° SE 04:29:36 10° SE 04:30:15 10° ESE visible
02 May -3.3 05:10:51 16° SSW 05:13:19 54° SE 05:16:31 10° ENE visible
03 May -2.3 04:20:39 25° SSE 04:21:04 26° SE 04:23:51 10° ENE visible
04 May -0.8 03:30:22 11° E 03:30:22 11° E 03:30:34 10° E visible
04 May -3.5 05:03:01 21° WSW 05:05:00 57° NW 05:08:15 10° NE visible
